Volver al catálogo

STARLINK-11267

ActivoComunicacionesVLEO
NORAD 60994·PAYLOAD·🇺🇸 United States

Lanzado Sep 5, 2024 desde Cape Canaveral Space Force Station

Loading…

Próximos Pases (próximas 24 horas)

TLE

ActualizadoSource: CelesTrak SupGP

Época: Sep 15, 2026, 02:17 UTC

1 60994C 24158E   26258.09562500 -.00028554  00000+0 -23510-3 0  2585
2 60994  53.1570  67.8642 0001071  81.6857 109.3173 15.69735496    18

Sigue STARLINK-11267 en tiempo real con AllMySat

Download on the App Store